User: anonymous   Login
Location: Hartman Creek State Park
(44.3257°N, 89.2134°W)
Time: 23:48:57
(UTC-06:00)
Language:

Cosmos 2263 Rocket - Orbit

View from above orbital plane
View from above orbital plane
View from above satellite
View from above satellite

Ground track
Ground track

The orbit data is extracted from the following two-line orbital elements,

1 22803U 93059B   18018.49620870 -.00000063 +00000-0 -72991-5 0  9999
2 22803 070.9889 155.7305 0015304 053.3654 306.8874 14.16783722258522
Epoch (UTC): 18 January 2018 11:54:32
Eccentricity: 0.0015304
inclination: 70.9889°
perigee height: 825 km
apogee height: 847 km
right ascension of ascending node: 155.7305°
argument of perigee: 53.3654°
revolutions per day: 14.16783722
mean anomaly at epoch: 306.8874°
orbit number at epoch: 25852

The dashed part of the orbit path shows where the satellite is in the earth's shadow,  

DLR